When you browse on this site, cookies collect data to enhance your experience and personalize the content and advertising you see.
Visit our Privacy Policy to learn more. By continuing to use the site, you agree to this use of cookies and data.
  • în România
  • Lista ţărilor
  • Pe 7 zile
  • Temperatura apei
  • Hartă satelitară
  • Meteo pe hartă
  • Widget-uri
  • user-avatar
    Intrare

    Meteo pe oră la Saurimo

    Astăzi, 26 Iunie, Miercuri

    Timp Temperatura Precipitaţii Vânt Presiune Umiditate
    00:00 +18°C° 0 mm 1 m/s 670 mmHg 35%
    01:00 +16°C° 0 mm 1 m/s 670 mmHg 40%
    02:00 +15°C° 0 mm 2 m/s 670 mmHg 40%
    03:00 +15°C° 0 mm 2 m/s 670 mmHg 41%
    04:00 +15°C° 0 mm 2 m/s 670 mmHg 41%
    05:00 +15°C° 0 mm 2 m/s 671 mmHg 40%
    06:00 +16°C° 0 mm 2 m/s 671 mmHg 40%
    07:00 +16°C° 0 mm 3 m/s 672 mmHg 39%
    08:00 +20°C° 0 mm 3 m/s 672 mmHg 33%
    09:00 +25°C° 0 mm 3 m/s 673 mmHg 27%
    10:00 +29°C° 0 mm 3 m/s 674 mmHg 21%
    11:00 +30°C° 0 mm 3 m/s 673 mmHg 19%
    12:00 +32°C° 0 mm 2 m/s 673 mmHg 17%
    13:00 +33°C° 0 mm 1 m/s 672 mmHg 14%
    14:00 +33°C° 0 mm 1 m/s 672 mmHg 15%
    15:00 +32°C° 0 mm 1 m/s 671 mmHg 15%
    16:00 +31°C° 0 mm 1 m/s 671 mmHg 15%
    17:00 +28°C° 0 mm 1 m/s 671 mmHg 18%
    18:00 +25°C° 0 mm 1 m/s 670 mmHg 22%
    19:00 +22°C° 0 mm 1 m/s 670 mmHg 26%
    20:00 +21°C° 0 mm 1 m/s 671 mmHg 27%
    21:00 +21°C° 0 mm 1 m/s 671 mmHg 29%
    22:00 +19°C° 0 mm 2 m/s 671 mmHg 31%
    23:00 +18°C° 0 mm 2 m/s 671 mmHg 33%

    Mâine, 27 Iunie, Joi

    Timp Temperatura Precipitaţii Vânt Presiune Umiditate
    00:00 +18°C° 0 mm 2 m/s 671 mmHg 34%
    01:00 +17°C° 0 mm 2 m/s 670 mmHg 36%
    02:00 +17°C° 0 mm 2 m/s 670 mmHg 37%
    03:00 +16°C° 0 mm 2 m/s 670 mmHg 38%
    04:00 +16°C° 0 mm 2 m/s 670 mmHg 38%
    05:00 +16°C° 0 mm 2 m/s 671 mmHg 38%
    06:00 +17°C° 0 mm 3 m/s 671 mmHg 38%
    07:00 +17°C° 0 mm 3 m/s 672 mmHg 37%
    08:00 +21°C° 0 mm 3 m/s 672 mmHg 32%
    09:00 +26°C° 0 mm 3 m/s 673 mmHg 27%
    10:00 +29°C° 0 mm 4 m/s 674 mmHg 22%
    11:00 +31°C° 0 mm 3 m/s 674 mmHg 19%
    12:00 +34°C° 0 mm 2 m/s 673 mmHg 17%
    13:00 +35°C° 0 mm 1 m/s 673 mmHg 14%
    14:00 +34°C° 0 mm 1 m/s 673 mmHg 14%
    15:00 +33°C° 0 mm 1 m/s 672 mmHg 14%
    16:00 +32°C° 0 mm 1 m/s 671 mmHg 15%
    17:00 +29°C° 0 mm 1 m/s 671 mmHg 18%
    18:00 +26°C° 0 mm 1 m/s 671 mmHg 22%
    19:00 +23°C° 0 mm 2 m/s 671 mmHg 25%
    20:00 +21°C° 0 mm 2 m/s 671 mmHg 27%
    21:00 +20°C° 0 mm 2 m/s 671 mmHg 29%
    22:00 +19°C° 0 mm 2 m/s 671 mmHg 31%
    23:00 +18°C° 0 mm 2 m/s 671 mmHg 33%

    Poimâine, 28 Iunie, Vineri

    Timp Temperatura Precipitaţii Vânt Presiune Umiditate
    00:00 +18°C° 0 mm 2 m/s 671 mmHg 34%
    01:00 +17°C° 0 mm 2 m/s 670 mmHg 36%
    02:00 +16°C° 0 mm 1 m/s 670 mmHg 38%
    03:00 +16°C° 0 mm 1 m/s 670 mmHg 39%
    04:00 +15°C° 0 mm 1 m/s 670 mmHg 40%
    05:00 +16°C° 0 mm 2 m/s 670 mmHg 40%
    06:00 +16°C° 0 mm 2 m/s 671 mmHg 40%
    07:00 +17°C° 0 mm 2 m/s 672 mmHg 40%
    08:00 +21°C° 0 mm 2 m/s 672 mmHg 35%
    09:00 +25°C° 0 mm 3 m/s 673 mmHg 29%
    10:00 +29°C° 0 mm 3 m/s 674 mmHg 24%
    11:00 +31°C° 0 mm 3 m/s 673 mmHg 21%
    12:00 +34°C° 0 mm 2 m/s 673 mmHg 17%
    13:00 +35°C° 0 mm 1 m/s 673 mmHg 14%
    14:00 +34°C° 0 mm 1 m/s 672 mmHg 14%
    15:00 +34°C° 0 mm 2 m/s 671 mmHg 15%
    16:00 +34°C° 0 mm 2 m/s 671 mmHg 15%
    17:00 +30°C° 0 mm 2 m/s 670 mmHg 19%
    18:00 +27°C° 0 mm 1 m/s 670 mmHg 23%
    19:00 +24°C° 0 mm 1 m/s 670 mmHg 26%
    20:00 +23°C° 0 mm 1 m/s 670 mmHg 28%
    21:00 +21°C° 0 mm 2 m/s 671 mmHg 30%
    22:00 +20°C° 0 mm 2 m/s 671 mmHg 32%
    23:00 +19°C° 0 mm 2 m/s 671 mmHg 34%

    29 Iunie, Sâmbătă

    Timp Temperatura Precipitaţii Vânt Presiune Umiditate
    00:00 +18°C° 0 mm 2 m/s 670 mmHg 35%
    01:00 +17°C° 0 mm 2 m/s 670 mmHg 37%
    02:00 +17°C° 0 mm 2 m/s 670 mmHg 38%
    03:00 +16°C° 0 mm 2 m/s 670 mmHg 39%
    04:00 +16°C° 0 mm 2 m/s 670 mmHg 40%
    05:00 +16°C° 0 mm 2 m/s 671 mmHg 40%
    06:00 +17°C° 0 mm 2 m/s 671 mmHg 40%
    07:00 +18°C° 0 mm 2 m/s 672 mmHg 40%
    08:00 +21°C° 0 mm 3 m/s 673 mmHg 34%
    09:00 +26°C° 0 mm 3 m/s 673 mmHg 28%
    10:00 +30°C° 0 mm 4 m/s 674 mmHg 22%
    11:00 +31°C° 0 mm 3 m/s 674 mmHg 20%
    12:00 +34°C° 0 mm 3 m/s 673 mmHg 17%
    13:00 +35°C° 0 mm 2 m/s 673 mmHg 14%
    14:00 +35°C° 0 mm 2 m/s 672 mmHg 15%
    15:00 +34°C° 0 mm 2 m/s 672 mmHg 15%
    16:00 +34°C° 0 mm 2 m/s 671 mmHg 15%
    17:00 +30°C° 0 mm 2 m/s 671 mmHg 19%
    18:00 +27°C° 0 mm 2 m/s 671 mmHg 23%
    19:00 +23°C° 0 mm 2 m/s 671 mmHg 27%
    20:00 +23°C° 0 mm 2 m/s 671 mmHg 28%
    21:00 +21°C° 0 mm 2 m/s 671 mmHg 30%
    22:00 +20°C° 0 mm 2 m/s 671 mmHg 32%
    23:00 +19°C° 0 mm 2 m/s 671 mmHg 32%

    30 Iunie, Duminică

    Timp Temperatura Precipitaţii Vânt Presiune Umiditate
    00:00 +19°C° 0 mm 2 m/s 671 mmHg 32%
    01:00 +18°C° 0 mm 2 m/s 671 mmHg 33%
    02:00 +18°C° 0 mm 2 m/s 671 mmHg 34%
    03:00 +17°C° 0 mm 2 m/s 671 mmHg 35%
    04:00 +17°C° 0 mm 2 m/s 671 mmHg 36%
    05:00 +17°C° 0 mm 2 m/s 671 mmHg 37%
    06:00 +17°C° 0 mm 3 m/s 672 mmHg 37%
    07:00 +18°C° 0 mm 3 m/s 672 mmHg 38%
    08:00 +21°C° 0 mm 3 m/s 673 mmHg 32%
    09:00 +26°C° 0 mm 3 m/s 674 mmHg 27%
    10:00 +30°C° 0 mm 4 m/s 674 mmHg 22%
    11:00 +31°C° 0 mm 3 m/s 674 mmHg 19%
    12:00 +34°C° 0 mm 3 m/s 674 mmHg 17%
    13:00 +35°C° 0 mm 2 m/s 673 mmHg 15%
    14:00 +35°C° 0 mm 2 m/s 673 mmHg 15%
    15:00 +34°C° 0 mm 2 m/s 672 mmHg 15%
    16:00 +33°C° 0 mm 1 m/s 672 mmHg 16%
    17:00 +30°C° 0 mm 1 m/s 672 mmHg 20%
    18:00 +27°C° 0 mm 2 m/s 671 mmHg 23%
    19:00 +24°C° 0 mm 2 m/s 671 mmHg 27%
    20:00 +23°C° 0 mm 2 m/s 672 mmHg 28%
    21:00 +21°C° 0 mm 2 m/s 672 mmHg 30%
    22:00 +20°C° 0 mm 2 m/s 672 mmHg 31%
    23:00 +19°C° 0 mm 2 m/s 671 mmHg 32%

    1 Iulie, Luni

    Timp Temperatura Precipitaţii Vânt Presiune Umiditate
    00:00 +19°C° 0 mm 2 m/s 671 mmHg 33%
    01:00 +18°C° 0 mm 2 m/s 671 mmHg 34%
    02:00 +17°C° 0 mm 2 m/s 671 mmHg 35%
    03:00 +17°C° 0 mm 2 m/s 670 mmHg 36%
    04:00 +16°C° 0 mm 2 m/s 670 mmHg 38%
    05:00 +17°C° 0 mm 2 m/s 671 mmHg 37%
    06:00 +17°C° 0 mm 2 m/s 671 mmHg 37%
    07:00 +18°C° 0 mm 2 m/s 672 mmHg 36%
    08:00 +22°C° 0 mm 3 m/s 673 mmHg 30%
    09:00 +27°C° 0 mm 3 m/s 673 mmHg 24%
    10:00 +30°C° 0 mm 3 m/s 674 mmHg 18%
    11:00 +33°C° 0 mm 3 m/s 673 mmHg 17%
    12:00 +34°C° 0 mm 3 m/s 673 mmHg 15%
    13:00 +35°C° 0 mm 3 m/s 672 mmHg 13%
    14:00 +35°C° 0 mm 3 m/s 672 mmHg 13%
    15:00 +34°C° 0 mm 3 m/s 671 mmHg 13%
    16:00 +34°C° 0 mm 2 m/s 671 mmHg 14%
    17:00 +30°C° 0 mm 2 m/s 670 mmHg 17%
    18:00 +27°C° 0 mm 2 m/s 670 mmHg 21%
    19:00 +23°C° 0 mm 2 m/s 670 mmHg 25%
    20:00 +21°C° 0 mm 2 m/s 670 mmHg 26%
    21:00 +21°C° 0 mm 2 m/s 670 mmHg 26%
    22:00 +20°C° 0 mm 2 m/s 671 mmHg 27%
    23:00 +19°C° 0 mm 2 m/s 670 mmHg 29%
    Arată mai mult